Weather Roundup
Issued by NWS Chicago, IL

Home | Current Version | Previous Version | Graphics & Text | Print | Product List | Glossary On
Versions: 1 2 3 4 5 6 7 8 9 10 11 12 13 14 15 16 17 18 19 20 21 22 23 24 25 26 27 28 29 30 31 32 33 34 35 36 37 38 39 40 41 42 43 44 45 46 47 48 49 50
000
NZUS59 KLOT 231809
HRRLOT

CHICAGO AREA WEATHER ROUNDUP
NATIONAL WEATHER SERVICE CHICAGO/ROMEOVILLE IL
100 PM CDT FRI JUN 23 2017

NOTE: "FAIR" INDICATES FEW OR NO CLOUDS BELOW 12,000 FEET WITH NO
SIGNIFICANT WEATHER AND/OR OBSTRUCTIONS TO VISIBILITY.

* THESE STATIONS ARE NOT UNDER NWS QUALITY CONTROL. THEY ALSO MAY NOT
  REPORT WEATHER SUCH AS PRECIPITATION OR FOG.

ILZ005-006-012>014-019>023-231900-
NORTHEAST ILLINOIS

CITY           SKY/WX    TMP DP  RH WIND       PRES   REMARKS
OHARE          MOSUNNY   79  53  40 NW13G20   29.71R
6HR MIN TEMP:  67; 6HR MAX TEMP:  79; 6HR PCP: TRACE;

MIDWAY         CLOUDY    79  57  46 N9        29.71R HX  80
6HR MIN TEMP:  67; 6HR MAX TEMP:  80; 6HR PCP:  0.01;

AURORA         SUNNY     78  57  48 NW13      29.74R
6HR MIN TEMP:  68; 6HR MAX TEMP:  78; 6HR PCP: TRACE;

LANSING*       CLOUDY    75  58  54 N3        29.72R
JOLIET*        MOSUNNY   79  59  51 N7        29.73S HX  80
WAUKEGAN       MOSUNNY   78  49  35 NW8G20    29.70R
6HR MIN TEMP:  65; 6HR MAX TEMP:  78;

DUPAGE AIRPORT SUNNY     78  57  48 N13       29.72R
6HR MIN TEMP:  67; 6HR MAX TEMP:  78; 6HR PCP:  0.02;

WHEELING       MOSUNNY   78  57  48 NW8       29.72R
6HR MIN TEMP:  66; 6HR MAX TEMP:  78; 6HR PCP: TRACE;

MORRIS*        MOSUNNY   78  59  52 NW7       29.73S HX  80
LEWIS AIRPORT* MOSUNNY   77  57  49 NW12      29.73F
NORTHERLY ISL    N/A     71  61  70 CALM        N/A
$$

WIZ051-052-058>065-066-070>072-231900-
SOUTHEAST WISCONSIN

CITY           SKY/WX    TMP DP  RH WIND       PRES   REMARKS
MILWAUKEE      PTSUNNY   80  43  26 NW14G28   29.68S
6HR MIN TEMP:  67; 6HR MAX TEMP:  80;

KENOSHA*       MOSUNNY   78  47  33 NW14G21   29.70S
RACINE*        MOSUNNY   79  43  27 NW12G24   29.71R
WAUKESHA       SUNNY     73  50  43 W12G17    29.71S
WEST BEND      MOSUNNY   77  43  29 W8        29.68F
$$

INZ001>003-010>013-019-020-231900-
NORTHWEST INDIANA

CITY           SKY/WX    TMP DP  RH WIND       PRES   REMARKS
GARY*          PTSUNNY   75  59  57 N6        29.73R
MICHIGAN CITY* NOT AVBL
RENSSELAER*    NOT AVBL
VALPARAISO     CLOUDY    73  59  61 N9G17     29.73R
$$

LMZ740>746-231900-
SOUTHERN LAKE MICHIGAN

STATION/POSITION TIME  SKY/WX   TEMP WIND        PRES    VSBY
                                AIR  DIR/SP/G
                 (UTC)          (F)  (DEG/KT/KT) (MB)    (MI)
HARRISON CRIB    1740            69  360/  6/  7   N/A
BURNHAM HARBOR   1800            71                N/A
CALUMET HARBOR   1748            72   10/  7/  9 1006.1R
BURNS HARBOR     1740            67  320/  6/  7 1007.1R
MICHIGAN CITY    1740            67  290/ 10/ 11   N/A
$$

ABBREVIATIONS USED IN REMARKS
   TC - TEMPERATURE IN CELSIUS
  WCI - WIND CHILL INDEX
   HX - HEAT INDEX
  VSB - VISIBILITY
$$




USA.gov is the U.S. government's official web portal to all federal, state and local government web resources and services.